Location: Colconda
(10.2500°N, 61.4333°W)
Time: 22:27:11
(UTC+00:00)

Daily predictions for brighter satellites

Satellite Brightness Start Highest point End
(mag) Time Altitude Azimuth Time Altitude Azimuth Time Altitude Azimuth
ARIANE 5 DEB (SYLDA) 3.8 22:20:31 10° WSW 22:23:21 51° S 22:34:02 10° E
Cosmos 1452 Rocket 3.8 22:33:39 10° S 22:38:39 44° E 22:43:38 10° NNE
NOAA 12 4.3 22:39:12 10° SSE 22:44:20 53° ENE 22:49:25 10° N
Cosmos 2279 Rocket 4.5 22:41:43 10° N 22:47:51 67° W 22:53:57 10° S
Cosmos 1633 3.5 22:46:14 10° SSE 22:49:16 26° E 22:52:18 10° NE
SPOT 3 Rocket 4.0 22:46:40 10° S 22:51:49 66° WSW 22:56:56 10° NNW
Cosmos 2360 Rocket 3.9 22:52:16 10° ESE 22:52:29 10° ESE 22:52:41 10° E
Cosmos 1980 Rocket 3.3 22:47:53 10° SSW 22:53:20 50° WNW 22:58:44 10° N
Cosmos 1782 Rocket 3.5 22:49:17 10° S 22:53:37 73° E 22:57:55 10° N
Cosmos 921 Rocket 3.3 22:50:16 10° SSW 22:54:27 71° W 22:58:36 10° N
Cosmos 2082 3.9 22:54:42 10° N 23:00:15 52° ENE 23:05:45 10° SSE
Resurs 01 Rocket 3.5 22:59:35 11° E 23:00:22 12° ENE 23:01:53 10° NE
Cosmos 405 Rocket 3.6 22:57:16 10° NNE 23:00:41 29° E 23:04:10 10° SE
Cosmos 1461 4.2 22:57:05 10° N 23:00:57 26° ENE 23:04:01 14° ESE
Cosmos 2227 Rocket 2.1 22:58:58 10° NNW 23:04:37 76° ENE 23:10:16 10° SSE
NOSS 2-3 (C) 3.6 23:01:17 10° SSW 23:05:54 77° ESE 23:10:28 10° NNE
Cosmos 1378 Rocket 3.7 23:02:28 10° N 23:06:43 50° E 23:10:57 10° SSE
Cosmos 2151 Rocket 4.3 23:08:23 10° SSE 23:12:15 30° E 23:16:05 10° NNE
Lacrosse 5 1.9 23:08:24 10° SSW 23:13:29 87° WNW 23:18:33 10° NNE
Cosmos 2026 Rocket 4.0 23:10:39 10° S 23:16:53 85° E 23:23:14 10° N
Ariane H10+ 4.0 23:15:01 10° WSW 23:22:46 27° SSW 23:25:17 16° SSE
SeaSat 1 2.6 23:18:31 10° NNE 23:23:25 74° WNW 23:28:19 10° SSW
Cosmos 1975 Rocket 3.4 23:22:14 10° NNE 23:26:26 43° E 23:28:32 25° SE
Cosmos 1655 Rocket 3.9 23:20:37 10° S 23:26:50 75° E 23:33:05 10° N
H-2A R/B 2.6 23:25:29 12° SSE 23:29:05 78° E 23:32:53 10° N
ALOS 3.2 23:24:57 10° S 23:29:27 49° W 23:33:57 10° NNW
Okean 3 4.3 23:28:29 10° NNW 23:32:39 53° W 23:36:50 10° S
ISS -1.9 23:30:30 10° WNW 23:33:15 26° SW 23:35:12 15° S
ARIANE 5 DEB (SYLDA) 4.3 23:35:17 10° SSW 23:35:39 13° SSW 23:35:39 13° SSW
Star 37E S/N 40062 4.5 23:35:22 10° NNW 23:36:51 26° NNE 23:36:51 26° NNE
CZ-4C R/B 3.1 23:30:08 10° NNW 23:37:53 59° ENE 23:42:44 26° SE
GPS 2-14 Rocket1 2.8 23:36:13 10° W 23:39:58 61° NNW 23:41:02 41° NE
FALCON 9 R/B 1.8 23:38:22 10° SSW 23:41:12 44° SE 23:41:16 44° SE
Meteor 1-11 Rocket 3.7 23:37:13 10° S 23:43:07 68° E 23:48:55 10° NNE
Envisat 4.0 23:47:28 28° NE 23:47:28 28° NE 23:50:52 10° NNE
USA 267 3.9 23:45:25 31° E 23:47:14 36° NE 23:53:06 10° NNW
Cosmos 1602 4.3 23:46:43 10° SSW 23:50:30 55° W 23:54:16 10° N
USA 186 4.4 23:56:23 14° N 23:56:23 14° N 23:56:53 10° N
Cosmos 2297 Rocket 3.4 23:49:03 10° NW 23:54:16 40° WSW 23:59:29 10° S
Cosmos 1812 3.9 23:51:02 10° NNW 23:54:41 41° W 23:57:29 16° SSW
SJ-6B 4.3 23:52:25 10° SSW 23:56:00 36° W 23:59:42 10° NNW
